This is the latest recevied weather packets stored in our database for station/object WA0GMH-1. If no packets are shown the sender has not sent any weather packets the latest 10 day(s).
| Time | Temp. | Humidity | Pressure | Rain* | Wind** | Luminosity | Snow |
|---|---|---|---|---|---|---|---|
| 1778180171 | 19.44° C | 62% | 1011.1 hPa | 0 mm | - | - | - |
| 1778179768 | 19.44° C | 61% | 1011 hPa | 0 mm | - | - | - |
| 1778179366 | 18.89° C | 62% | 1010.8 hPa | 0 mm | - | - | - |
| 1778178963 | 18.89° C | 61% | 1010.8 hPa | 0 mm | - | - | - |
| 1778178562 | 18.33° C | 61% | 1011.1 hPa | 0 mm | - | - | - |
| 1778178159 | 18.33° C | 62% | 1010.8 hPa | 0 mm | - | - | - |
| 1778177757 | 18.33° C | 65% | 1010.9 hPa | 0 mm | - | - | - |
| 1778177355 | 17.78° C | 65% | 1010.9 hPa | 0 mm | - | - | - |
| 1778176953 | 17.78° C | 66% | 1010.9 hPa | 0 mm | - | - | - |
| 1778176550 | 17.22° C | 66% | 1011 hPa | 0 mm | - | - | - |
| 1778176148 | 17.22° C | 65% | 1011.1 hPa | 0 mm | - | - | - |
| 1778175746 | 17.22° C | 68% | 1011.2 hPa | 0 mm | - | - | - |
| 1778175344 | 16.67° C | 69% | 1011.3 hPa | 0 mm | - | - | - |
| 1778174941 | 16.67° C | 67% | 1011.3 hPa | 0 mm | - | - | - |
| 1778174539 | 16.67° C | 66% | 1011.3 hPa | 0 mm | - | - | - |
| 1778174137 | 16.67° C | 71% | 1011.2 hPa | 0 mm | - | - | - |
| 1778173735 | 16.11° C | 72% | 1011.1 hPa | 0 mm | - | - | - |
| 1778173332 | 16.11° C | 75% | 1011.1 hPa | 0 mm | - | - | - |
| 1778172930 | 15.56° C | 75% | 1011.2 hPa | 0 mm | - | - | - |
| 1778172528 | 15.56° C | 75% | 1011.2 hPa | 0 mm | - | - | - |
| 1778172126 | 15° C | 76% | 1011.3 hPa | 0 mm | - | - | - |
| 1778171723 | 15° C | 78% | 1011.1 hPa | 0 mm | - | - | - |
| 1778171321 | 14.44° C | 76% | 1011.2 hPa | 0 mm | - | - | - |
| 1778170919 | 14.44° C | 79% | 1011.2 hPa | 0 mm | - | - | - |
| 1778170517 | 13.89° C | 79% | 1011.1 hPa | 0 mm | - | - | - |
* Rain since midnight (hover to see other rain measurements)
** Current wind speed in m/s (hover to see current wind gust speed)